Tiempo cada hora Allah-Yun

Hoy, 3 Agosto, Martes

Tiempo Temperatura Precipitaciones Viento Presión Humedad
00:00 +14°C° 0 mm 2 mps 710 mmHg 71%
01:00 +14°C° 0 mm 1 mps 710 mmHg 72%
02:00 +14°C° 0 mm 1 mps 710 mmHg 73%
03:00 +13°C° 0 mm 1 mps 710 mmHg 74%
04:00 +14°C° 0 mm 1 mps 710 mmHg 71%
05:00 +15°C° 0 mm 1 mps 711 mmHg 68%
06:00 +16°C° 0 mm 1 mps 711 mmHg 65%
07:00 +18°C° 0 mm 1 mps 711 mmHg 59%
08:00 +20°C° 0 mm 1 mps 711 mmHg 52%
09:00 +21°C° 0 mm 1 mps 711 mmHg 45%
10:00 +22°C° 0 mm 1 mps 710 mmHg 42%
11:00 +23°C° 0 mm 1 mps 710 mmHg 38%
12:00 +24°C° 0 mm 1 mps 710 mmHg 35%
13:00 +24°C° 0 mm 1 mps 710 mmHg 34%
14:00 +24°C° 0 mm 1 mps 710 mmHg 33%
15:00 +24°C° 0 mm 1 mps 710 mmHg 32%
16:00 +23°C° 0 mm 1 mps 709 mmHg 36%
17:00 +23°C° 0 mm 1 mps 709 mmHg 40%
18:00 +22°C° 0 mm 1 mps 709 mmHg 44%
19:00 +19°C° 0 mm 2 mps 709 mmHg 48%
20:00 +17°C° 0 mm 2 mps 709 mmHg 52%
21:00 +15°C° 0 mm 2 mps 709 mmHg 56%
22:00 +14°C° 0 mm 1 mps 709 mmHg 59%
23:00 +13°C° 0 mm 1 mps 709 mmHg 61%

Mañana, 4 Agosto, Miércoles

Tiempo Temperatura Precipitaciones Viento Presión Humedad
00:00 +13°C° 0 mm 1 mps 709 mmHg 64%
01:00 +12°C° 0 mm 1 mps 709 mmHg 66%
02:00 +11°C° 0 mm 0 mps 709 mmHg 68%
03:00 +10°C° 0 mm 0 mps 708 mmHg 70%
04:00 +12°C° 0 mm 0 mps 709 mmHg 65%
05:00 +13°C° 0 mm 0 mps 709 mmHg 61%
06:00 +15°C° 0 mm 0 mps 709 mmHg 56%
07:00 +17°C° 0 mm 0 mps 708 mmHg 53%
08:00 +18°C° 0 mm 0 mps 708 mmHg 51%
09:00 +20°C° 0 mm 0 mps 708 mmHg 49%
10:00 +21°C° 0 mm 0 mps 708 mmHg 45%
11:00 +24°C° 0 mm 1 mps 708 mmHg 42%
12:00 +25°C° 0 mm 1 mps 707 mmHg 39%
13:00 +25°C° 0 mm 1 mps 707 mmHg 37%
14:00 +26°C° 0 mm 1 mps 707 mmHg 35%
15:00 +26°C° 0 mm 1 mps 706 mmHg 34%
16:00 +25°C° 0 mm 1 mps 706 mmHg 37%
17:00 +25°C° 0 mm 1 mps 706 mmHg 41%
18:00 +24°C° 0 mm 2 mps 706 mmHg 45%
19:00 +22°C° 0 mm 1 mps 705 mmHg 51%
20:00 +20°C° 0 mm 1 mps 705 mmHg 57%
21:00 +18°C° 0 mm 1 mps 705 mmHg 63%
22:00 +16°C° 0 mm 1 mps 705 mmHg 66%
23:00 +15°C° 0 mm 1 mps 705 mmHg 69%

Pasado mañana, 5 Agosto, Jueves

Tiempo Temperatura Precipitaciones Viento Presión Humedad
00:00 +13°C° 0 mm 0 mps 705 mmHg 71%
01:00 +13°C° 0 mm 0 mps 705 mmHg 73%
02:00 +12°C° 0 mm 0 mps 705 mmHg 75%
03:00 +12°C° 0 mm 0 mps 705 mmHg 76%
04:00 +14°C° 0 mm 0 mps 705 mmHg 71%
05:00 +15°C° 0 mm 0 mps 705 mmHg 66%
06:00 +17°C° 0 mm 0 mps 706 mmHg 61%
07:00 +18°C° 0 mm 0 mps 705 mmHg 56%
08:00 +20°C° 0 mm 0 mps 705 mmHg 52%
09:00 +21°C° 0 mm 0 mps 705 mmHg 47%
10:00 +22°C° 0 mm 0 mps 705 mmHg 44%
11:00 +25°C° 0 mm 1 mps 705 mmHg 40%
12:00 +26°C° 0 mm 1 mps 705 mmHg 37%
13:00 +25°C° 0 mm 1 mps 705 mmHg 39%
14:00 +25°C° 0 mm 2 mps 704 mmHg 41%
15:00 +24°C° 0 mm 2 mps 704 mmHg 43%
16:00 +24°C° 0 mm 2 mps 704 mmHg 47%
17:00 +23°C° 0 mm 1 mps 704 mmHg 51%
18:00 +22°C° 0 mm 1 mps 704 mmHg 56%
19:00 +21°C° 0.1 mm 1 mps 704 mmHg 60%
20:00 +20°C° 0.1 mm 1 mps 704 mmHg 64%
21:00 +19°C° 0.1 mm 1 mps 704 mmHg 69%
22:00 +18°C° 0.6 mm 1 mps 704 mmHg 75%
23:00 +16°C° 0.6 mm 2 mps 704 mmHg 81%

6 Agosto, Viernes

Tiempo Temperatura Precipitaciones Viento Presión Humedad
00:00 +15°C° 0.6 mm 2 mps 705 mmHg 87%
01:00 +14°C° 0.7 mm 2 mps 705 mmHg 89%
02:00 +14°C° 0.7 mm 2 mps 705 mmHg 91%
03:00 +14°C° 0.7 mm 1 mps 705 mmHg 93%
04:00 +15°C° 0.3 mm 1 mps 706 mmHg 90%
05:00 +15°C° 0.3 mm 1 mps 706 mmHg 87%
06:00 +16°C° 0.3 mm 1 mps 706 mmHg 85%
07:00 +18°C° 0 mm 1 mps 706 mmHg 77%
08:00 +19°C° 0 mm 1 mps 706 mmHg 69%
09:00 +21°C° 0 mm 1 mps 707 mmHg 62%
10:00 +21°C° 0.2 mm 1 mps 707 mmHg 58%
11:00 +22°C° 0.2 mm 1 mps 707 mmHg 54%
12:00 +23°C° 0.2 mm 1 mps 707 mmHg 50%
13:00 +23°C° 0.2 mm 1 mps 707 mmHg 50%
14:00 +23°C° 0.2 mm 1 mps 707 mmHg 50%
15:00 +23°C° 0.2 mm 1 mps 707 mmHg 50%
16:00 +22°C° 0 mm 1 mps 707 mmHg 54%
17:00 +22°C° 0 mm 1 mps 708 mmHg 58%
18:00 +21°C° 0 mm 1 mps 708 mmHg 62%
19:00 +20°C° 0 mm 1 mps 708 mmHg 64%
20:00 +19°C° 0 mm 1 mps 708 mmHg 66%
21:00 +18°C° 0 mm 1 mps 709 mmHg 68%
22:00 +16°C° 0 mm 1 mps 709 mmHg 69%
23:00 +15°C° 0 mm 1 mps 709 mmHg 70%

7 Agosto, Sábado

Tiempo Temperatura Precipitaciones Viento Presión Humedad
00:00 +14°C° 0 mm 1 mps 709 mmHg 72%
01:00 +14°C° 0 mm 1 mps 710 mmHg 73%
02:00 +13°C° 0 mm 1 mps 710 mmHg 73%
03:00 +13°C° 0 mm 1 mps 710 mmHg 74%
04:00 +14°C° 0 mm 1 mps 711 mmHg 72%
05:00 +15°C° 0 mm 1 mps 711 mmHg 71%
06:00 +16°C° 0 mm 1 mps 712 mmHg 69%
07:00 +17°C° 0 mm 2 mps 712 mmHg 63%
08:00 +18°C° 0 mm 2 mps 713 mmHg 57%
09:00 +20°C° 0 mm 3 mps 713 mmHg 51%
10:00 +20°C° 0 mm 3 mps 713 mmHg 49%
11:00 +21°C° 0 mm 4 mps 713 mmHg 47%
12:00 +21°C° 0 mm 4 mps 713 mmHg 45%
13:00 +21°C° 0 mm 4 mps 713 mmHg 46%
14:00 +21°C° 0 mm 4 mps 713 mmHg 46%
15:00 +21°C° 0 mm 4 mps 714 mmHg 46%
16:00 +20°C° 0 mm 3 mps 714 mmHg 49%
17:00 +20°C° 0 mm 3 mps 714 mmHg 52%
18:00 +19°C° 0 mm 3 mps 714 mmHg 55%
19:00 +17°C° 0 mm 2 mps 714 mmHg 62%
20:00 +15°C° 0 mm 2 mps 714 mmHg 69%
21:00 +14°C° 0 mm 1 mps 714 mmHg 76%
22:00 +13°C° 0 mm 1 mps 714 mmHg 78%
23:00 +13°C° 0 mm 1 mps 713 mmHg 80%

8 Agosto, Domingo

Tiempo Temperatura Precipitaciones Viento Presión Humedad
00:00 +12°C° 0 mm 1 mps 713 mmHg 82%
01:00 +12°C° 0 mm 1 mps 713 mmHg 83%
02:00 +11°C° 0 mm 1 mps 713 mmHg 84%
03:00 +11°C° 0 mm 1 mps 713 mmHg 86%
04:00 +12°C° 0 mm 1 mps 713 mmHg 81%
05:00 +13°C° 0 mm 1 mps 713 mmHg 77%
06:00 +14°C° 0 mm 1 mps 713 mmHg 72%
07:00 +16°C° 0 mm 1 mps 713 mmHg 66%
08:00 +19°C° 0 mm 1 mps 713 mmHg 61%
09:00 +20°C° 0 mm 1 mps 713 mmHg 55%
10:00 +21°C° 0 mm 1 mps 713 mmHg 50%
11:00 +22°C° 0 mm 1 mps 713 mmHg 46%
12:00 +24°C° 0 mm 1 mps 712 mmHg 41%
13:00 +24°C° 0 mm 1 mps 712 mmHg 39%
14:00 +24°C° 0 mm 1 mps 712 mmHg 37%
15:00 +25°C° 0 mm 1 mps 711 mmHg 34%
16:00 +24°C° 0 mm 1 mps 711 mmHg 38%
17:00 +24°C° 0 mm 1 mps 711 mmHg 41%
18:00 +23°C° 0 mm 1 mps 711 mmHg 44%
19:00 +21°C° 0 mm 1 mps 711 mmHg 50%
20:00 +19°C° 0 mm 1 mps 711 mmHg 55%
21:00 +15°C° 0 mm 1 mps 711 mmHg 61%
22:00 +15°C° 0 mm 1 mps 711 mmHg 62%
23:00 +14°C° 0 mm 1 mps 711 mmHg 63%
Mostrar más

Necesitamos Su Consentimiento

Meteoprog y nuestros Proveedores de Servicios pueden almacenar y acceder a sus datos personales como cookies, identificadores de dispositivo u otras tecnologías similares de su dispositivo y procesar dichos datos para personalizar contenido y anuncios, además de ofrecer funciones de redes sociales y analizar el tráfico.

  • Almacenar y/o acceder a información en su dispositivo

    Se puede almacenar o acceder a cookies, identificadores de dispositivo u otra información de su dispositivo para los fines anteriormente indicados.

  • Anuncios y contenido personalizados, medición de anuncios y contenido, percepciones del público, y desarrollo de productos

    Los anuncios y el contenido pueden personalizarse en base a su perfil. Se pueden añadir más datos para personalizar mejor los anuncios y contenidos. Se puede medir el rendimiento de los anuncios y contenidos. Se puede obtener la percepción sobre el público que ha visto los anuncios y contenidos. Dichos datos pueden usarse para desarrollar o mejorar la experiencia del usuario, sistemas y software.

Al hacer clic en ‘Estoy De Acuerdo’ usted permitirá el uso de las cookies, identificadores de dispositivo, balizas web u otras tecnologías similares indicadas. Su configuración puede cambiarse desde el navegador de su dispositivo.

Para ciertos fines, los intereses legítimos pueden ser considerados por encima del consentimiento. Puede leer más sobre ello en nuestra Política de Privacidad y Cookies.